Location: Clanezzo
(45.7500°N, 9.6000°E)
Time: 04:12:27
(UTC+00:00)

ESTCUBE 1 - Pass Details

Date: 03 July 2022
Orbit: 646 x 657 km, 97.9° (Epoch: 13 August)

Event Time Altitude Azimuth Distance (km) Brightness Sun altitude
Exits shadow 22:29:21 17° 234° (SW) 1,646 ? -20.2°
Maximum altitude 22:31:15 22° 267° (W) 1,434 ? -20.2°
Drops below altitude 10° 22:34:43 10° 318° (NW) 2,058 ? -20.4°
Sets 22:37:24 0° 334° (NNW) 2,977 ? -20.5°
